Crane Lake, MN

11:14 PM CDT on July 22, 2017 (GMT -0500)
Crane Lake

Weather History for KCDD - September, 2012

Change the Weather History Date:

Sunday, September 2, 2012

  Actual Average Record
Temperature  
Mean Temperature 65 °F -  
Max Temperature 80 °F 72 °F 87 °F (2004)
Min Temperature 50 °F 50 °F 39 °F (2013)
Growing Degree Days 15 (Base 50)    
Moisture  
Dew Point 52 °F    
Average Humidity 64    
Maximum Humidity 94    
Minimum Humidity 30    
Precipitation  
Precipitation 0.00 in - - ()
Sea Level Pressure  
Sea Level Pressure 29.94 in    
Wind  
Wind Speed 2 mph (SSE)    
Max Wind Speed 12 mph    
Max Gust Speed 18 mph    
Visibility 10 miles    
Events Rain    
Averages and records for this station are not official NWS values.
T = Trace of Precipitation, MM = Missing Value Source: NWS Daily Summary

Daily Weather History Graph

Daily Weather History Graph

Search for Another Location

Airport or City:

Trip Planner

Search our weather history database for the weather conditions in past years. The results will help you decide how hot, cold, wet, or windy it might be!

Date:

Astronomy

Sep. 02, 2012 Rise Set
Actual Time 6:29 AM CDT 7:48 PM CDT
Civil Twilight 5:57 AM CDT 8:20 PM CDT
Nautical Twilight 5:18 AM CDT 8:59 PM CDT
Astronomical Twilight 4:36 AM CDT 9:40 PM CDT
Moon 8:18 PM CDT (9/2) 8:54 AM CDT (9/2)
Length of Visible Light 14h 23m
Length of Day
13h 18m
Waning Gibbous, 95% of the Moon is Illuminated
Sep 2
Waning Gibbous
Sep 8
Last Quarter
Sep 15
New
Sep 22
First Quarter
Sep 29
Full

Hourly Weather History & Observations

Time (CDT) Temp. Dew Point Humidity Pressure Visibility Wind Dir Wind Speed Gust Speed Precip Events Conditions
12:11 AM 50.0 °F 46.4 °F 87% 30.07 in 10.0 mi Calm Calm - N/A   Clear
12:16 AM 50.0 °F 48.2 °F 94% 30.07 in 10.0 mi Calm Calm - N/A   Clear
12:31 AM 51.8 °F 48.2 °F 88% 30.08 in 10.0 mi Calm Calm - N/A   Clear
12:36 AM 51.8 °F 48.2 °F 88% 30.08 in 10.0 mi Calm Calm - N/A   Clear
12:51 AM 51.8 °F 50.0 °F 94% 30.07 in 10.0 mi Calm Calm - N/A   Clear
12:56 AM 51.8 °F 50.0 °F 94% 30.07 in 10.0 mi Calm Calm - N/A   Clear
1:11 AM 51.8 °F 50.0 °F 94% 30.06 in 10.0 mi Calm Calm - N/A   Clear
1:16 AM 53.6 °F 50.0 °F 88% 30.07 in 10.0 mi Calm Calm - N/A   Clear
1:31 AM 53.6 °F 48.2 °F 82% 30.07 in 10.0 mi Calm Calm - N/A   Clear
1:36 AM 51.8 °F 48.2 °F 88% 30.07 in 10.0 mi Calm Calm - N/A   Clear
1:51 AM 53.6 °F 50.0 °F 88% 30.06 in 10.0 mi Calm Calm - N/A   Clear
1:56 AM 53.6 °F 50.0 °F 88% 30.06 in 10.0 mi Calm Calm - N/A   Clear
2:11 AM 53.6 °F 50.0 °F 88% 30.06 in 10.0 mi Calm Calm - N/A   Clear
2:16 AM 53.6 °F 50.0 °F 88% 30.06 in 10.0 mi Calm Calm - N/A   Clear
2:32 AM 53.6 °F 50.0 °F 88% 30.05 in 10.0 mi Calm Calm - N/A   Clear
2:35 AM 53.6 °F 50.0 °F 88% 30.05 in 10.0 mi Calm Calm - N/A   Clear
2:52 AM 53.6 °F 50.0 °F 88% 30.05 in 10.0 mi Calm Calm - N/A   Clear
2:56 AM 53.6 °F 50.0 °F 88% 30.05 in 10.0 mi Calm Calm - N/A   Clear
3:11 AM 53.6 °F 50.0 °F 88% 30.04 in 10.0 mi Calm Calm - N/A   Clear
3:16 AM 55.4 °F 50.0 °F 82% 30.04 in 10.0 mi SSE 3.5 mph - N/A   Clear
3:31 AM 55.4 °F 50.0 °F 82% 30.03 in 10.0 mi Calm Calm - N/A   Clear
3:36 AM 55.4 °F 50.0 °F 82% 30.03 in 10.0 mi SE 3.5 mph - N/A   Clear
3:51 AM 57.2 °F 50.0 °F 77% 30.03 in 10.0 mi Calm Calm - N/A   Clear
3:56 AM 57.2 °F 50.0 °F 77% 30.03 in 10.0 mi Calm Calm - N/A   Clear
4:11 AM 57.2 °F 50.0 °F 77% 30.03 in 10.0 mi SSE 3.5 mph - N/A   Clear
4:16 AM 57.2 °F 50.0 °F 77% 30.03 in 10.0 mi SSE 3.5 mph - N/A   Clear
4:31 AM 57.2 °F 48.2 °F 72% 30.03 in 10.0 mi Calm Calm - N/A   Clear
4:36 AM 57.2 °F 48.2 °F 72% 30.03 in 10.0 mi Calm Calm - N/A   Clear
4:51 AM 55.4 °F 48.2 °F 77% 30.03 in 10.0 mi Calm Calm - N/A   Clear
4:56 AM 55.4 °F 46.4 °F 72% 30.03 in 10.0 mi Calm Calm - N/A   Clear
5:11 AM 53.6 °F 46.4 °F 77% 30.03 in 10.0 mi Calm Calm - N/A   Clear
5:16 AM 53.6 °F 44.6 °F 72% 30.02 in 10.0 mi Calm Calm - N/A   Clear
5:31 AM 51.8 °F 44.6 °F 76% 30.02 in 10.0 mi Calm Calm - N/A   Clear
5:36 AM 51.8 °F 44.6 °F 76% 30.02 in 10.0 mi Calm Calm - N/A   Clear
5:52 AM 50.0 °F 44.6 °F 82% 30.02 in 10.0 mi Calm Calm - N/A   Clear
5:56 AM 50.0 °F 44.6 °F 82% 30.02 in 10.0 mi Calm Calm - N/A   Clear
6:12 AM 50.0 °F 44.6 °F 82% 30.02 in 10.0 mi Calm Calm - N/A   Clear
6:16 AM 50.0 °F 44.6 °F 82% 30.02 in 10.0 mi Calm Calm - N/A   Clear
6:31 AM 51.8 °F 46.4 °F 82% 30.01 in 10.0 mi Calm Calm - N/A   Clear
6:36 AM 51.8 °F 46.4 °F 82% 30.01 in 10.0 mi North - - N/A   Clear
6:50 AM 51.8 °F 46.4 °F 82% 30.01 in 10.0 mi North - - N/A   Clear
6:56 AM 51.8 °F 48.2 °F 88% 30.01 in 10.0 mi Calm Calm - N/A   Clear
7:11 AM 55.4 °F 51.8 °F 88% 30.02 in 10.0 mi South 3.5 mph - N/A   Clear
7:16 AM 57.2 °F 53.6 °F 88% 30.02 in 10.0 mi Calm Calm - N/A   Clear
7:32 AM 59.0 °F 55.4 °F 88% 30.02 in 10.0 mi Calm Calm - N/A   Clear
7:36 AM 60.8 °F 55.4 °F 82% 30.02 in 10.0 mi SSE 3.5 mph - N/A   Clear
7:56 AM 60.8 °F 55.4 °F 82% 30.00 in 10.0 mi SSE 4.6 mph - N/A   Clear
8:11 AM 62.6 °F 55.4 °F 77% 30.01 in 10.0 mi SSE 6.9 mph - N/A   Clear
8:16 AM 62.6 °F 55.4 °F 77% 30.00 in 10.0 mi SSE 5.8 mph - N/A   Clear
8:31 AM 62.6 °F 53.6 °F 72% 30.00 in 10.0 mi SSE 5.8 mph - N/A   Clear
8:36 AM 64.4 °F 53.6 °F 68% 30.00 in 10.0 mi SSE 6.9 mph - N/A   Clear
8:51 AM 64.4 °F 53.6 °F 68% 29.99 in 10.0 mi South 3.5 mph - N/A   Clear
8:55 AM 64.4 °F 55.4 °F 73% 29.99 in 10.0 mi SSE 4.6 mph - N/A   Clear
9:11 AM 66.2 °F 53.6 °F 64% 29.98 in 10.0 mi SSE 4.6 mph - N/A   Clear
9:16 AM 66.2 °F 53.6 °F 64% 29.99 in 10.0 mi South 4.6 mph - N/A   Clear
9:31 AM 68.0 °F 53.6 °F 60% 29.98 in 10.0 mi South 8.1 mph - N/A   Clear
9:36 AM 68.0 °F 53.6 °F 60% 29.98 in 10.0 mi SSE 5.8 mph - N/A   Clear
9:51 AM 69.8 °F 51.8 °F 53% 29.98 in 10.0 mi South 5.8 mph - N/A   Clear
9:56 AM 68.0 °F 51.8 °F 56% 29.97 in 10.0 mi SSE 4.6 mph - N/A   Clear
10:11 AM 69.8 °F 53.6 °F 56% 29.98 in 10.0 mi SE 3.5 mph - N/A   Clear
10:16 AM 69.8 °F 53.6 °F 56% 29.98 in 10.0 mi South 6.9 mph - N/A   Clear
10:31 AM 71.6 °F 51.8 °F 50% 29.97 in 10.0 mi SSE 4.6 mph 16.1 mph N/A   Clear
10:36 AM 73.4 °F 51.8 °F 47% 29.97 in 10.0 mi SE 5.8 mph - N/A   Clear
10:51 AM 73.4 °F 51.8 °F 47% 29.97 in 10.0 mi SSE 8.1 mph - N/A   Clear
10:56 AM 73.4 °F 50.0 °F 44% 29.96 in 10.0 mi SSE 10.4 mph 16.1 mph N/A   Clear
11:12 AM 73.4 °F 50.0 °F 44% 29.95 in 10.0 mi SE 6.9 mph - N/A   Clear
11:15 AM 73.4 °F 50.0 °F 44% 29.95 in 10.0 mi SSE 10.4 mph - N/A   Clear
11:31 AM 73.4 °F 51.8 °F 47% 29.95 in 10.0 mi SSE 3.5 mph - N/A   Clear
11:36 AM 73.4 °F 51.8 °F 47% 29.94 in 10.0 mi SSE 9.2 mph - N/A   Clear
11:51 AM 75.2 °F 50.0 °F 41% 29.94 in 10.0 mi SSE 5.8 mph - N/A   Clear
11:56 AM 75.2 °F 50.0 °F 41% 29.94 in 10.0 mi SSE 6.9 mph - N/A   Clear
12:16 PM 73.4 °F 48.2 °F 41% 29.92 in 10.0 mi SSE 5.8 mph - N/A   Clear
12:31 PM 75.2 °F 51.8 °F 44% 29.92 in 10.0 mi SSE 5.8 mph - N/A   Clear
12:36 PM 75.2 °F 50.0 °F 41% 29.91 in 10.0 mi SSE 8.1 mph - N/A   Clear
12:51 PM 77.0 °F 48.2 °F 36% 29.91 in 10.0 mi SSE 9.2 mph 18.4 mph N/A   Clear
12:56 PM 77.0 °F 48.2 °F 36% 29.91 in 10.0 mi SSE 5.8 mph 18.4 mph N/A   Clear
1:11 PM 78.8 °F 48.2 °F 34% 29.89 in 10.0 mi SSE 9.2 mph - N/A   Clear
1:31 PM 78.8 °F 48.2 °F 34% 29.88 in 10.0 mi SSE 9.2 mph 18.4 mph N/A   Clear
1:36 PM 80.6 °F 48.2 °F 32% 29.88 in 10.0 mi SSE 11.5 mph 17.3 mph N/A   Clear
1:51 PM 80.6 °F 46.4 °F 30% 29.88 in 10.0 mi SE 9.2 mph - N/A   Clear
1:56 PM 78.8 °F 46.4 °F 32% 29.89 in 10.0 mi South 10.4 mph - N/A   Clear
2:11 PM 78.8 °F 50.0 °F 36% 29.88 in 10.0 mi SE 4.6 mph - N/A   Clear
2:16 PM 80.6 °F 48.2 °F 32% 29.88 in 10.0 mi SE 5.8 mph - N/A   Clear
2:31 PM 80.6 °F 46.4 °F 30% 29.87 in 10.0 mi SSE 8.1 mph - N/A   Clear
2:36 PM 80.6 °F 48.2 °F 32% 29.87 in 10.0 mi SSE 4.6 mph - N/A   Clear
2:51 PM 80.6 °F 48.2 °F 32% 29.86 in 10.0 mi SSE 6.9 mph - N/A   Clear
2:56 PM 78.8 °F 48.2 °F 34% 29.86 in 10.0 mi SE 4.6 mph - N/A   Clear
3:12 PM 78.8 °F 48.2 °F 34% 29.86 in 10.0 mi SSE 6.9 mph - N/A   Clear
3:16 PM 78.8 °F 48.2 °F 34% 29.86 in 10.0 mi SSE 6.9 mph - N/A   Clear
3:31 PM 78.8 °F 48.2 °F 34% 29.86 in 10.0 mi SSE 5.8 mph - N/A   Clear
3:36 PM 78.8 °F 50.0 °F 36% 29.85 in 10.0 mi South 5.8 mph - N/A   Clear
3:51 PM 77.0 °F 50.0 °F 39% 29.86 in 10.0 mi South 8.1 mph - N/A   Clear
3:55 PM 77.0 °F 48.2 °F 36% 29.86 in 10.0 mi SSE 5.8 mph - N/A   Clear
4:11 PM 75.2 °F 51.8 °F 44% 29.85 in 10.0 mi SSE 4.6 mph - N/A   Clear
4:15 PM 75.2 °F 51.8 °F 44% 29.85 in 10.0 mi SE 6.9 mph - N/A   Clear
4:31 PM 75.2 °F 53.6 °F 47% 29.84 in 10.0 mi SSE 3.5 mph - N/A   Clear
4:35 PM 75.2 °F 53.6 °F 47% 29.83 in 10.0 mi Calm Calm - N/A   Clear
4:51 PM 75.2 °F 53.6 °F 47% 29.83 in 10.0 mi SSE 3.5 mph - N/A   Clear
4:55 PM 75.2 °F 53.6 °F 47% 29.83 in 10.0 mi SSE 5.8 mph - N/A   Clear
5:11 PM 75.2 °F 53.6 °F 47% 29.84 in 10.0 mi South 5.8 mph - N/A   Clear
5:15 PM 75.2 °F 53.6 °F 47% 29.84 in 10.0 mi SSE 6.9 mph - N/A   Clear
5:31 PM 75.2 °F 53.6 °F 47% 29.84 in 10.0 mi SSE 5.8 mph - N/A   Clear
5:35 PM 75.2 °F 53.6 °F 47% 29.84 in 10.0 mi South 3.5 mph - N/A   Scattered Clouds
5:51 PM 73.4 °F 55.4 °F 53% 29.84 in 10.0 mi SSE 4.6 mph - N/A   Clear
5:56 PM 73.4 °F 55.4 °F 53% 29.84 in 10.0 mi SSE 3.5 mph - N/A   Clear
6:11 PM 73.4 °F 55.4 °F 53% 29.83 in 10.0 mi Calm Calm - N/A   Clear
6:16 PM 71.6 °F 55.4 °F 57% 29.84 in 10.0 mi SSE 3.5 mph - N/A   Clear
6:32 PM 71.6 °F 55.4 °F 57% 29.84 in 10.0 mi Calm Calm - N/A   Clear
6:36 PM 71.6 °F 55.4 °F 57% 29.84 in 10.0 mi Calm Calm - N/A   Clear
6:52 PM 69.8 °F 55.4 °F 60% 29.84 in 10.0 mi Calm Calm - N/A   Scattered Clouds
6:56 PM 69.8 °F 55.4 °F 60% 29.83 in 10.0 mi Calm Calm - N/A   Scattered Clouds
7:11 PM 69.8 °F 57.2 °F 64% 29.83 in 10.0 mi Calm Calm - N/A Rain Light Rain
7:15 PM 69.8 °F 57.2 °F 64% 29.83 in 10.0 mi Calm Calm - N/A Rain Light Rain
7:31 PM 68.0 °F 57.2 °F 68% 29.83 in 10.0 mi Calm Calm - N/A   Mostly Cloudy
7:35 PM 68.0 °F 57.2 °F 68% 29.83 in 10.0 mi Calm Calm - N/A   Mostly Cloudy
7:52 PM 68.0 °F 57.2 °F 68% 29.84 in 10.0 mi Calm Calm - N/A   Overcast
7:56 PM 68.0 °F 55.4 °F 64% 29.84 in 10.0 mi Calm Calm - N/A   Mostly Cloudy
8:11 PM 68.0 °F 57.2 °F 68% 29.84 in 10.0 mi Calm Calm - N/A   Mostly Cloudy
8:15 PM 66.2 °F 55.4 °F 68% 29.84 in 10.0 mi Calm Calm - N/A   Mostly Cloudy
8:31 PM 66.2 °F 57.2 °F 73% 29.84 in 10.0 mi Calm Calm - N/A   Scattered Clouds
8:36 PM 66.2 °F 57.2 °F 73% 29.84 in 10.0 mi Calm Calm - N/A   Scattered Clouds
8:52 PM 66.2 °F 57.2 °F 73% 29.84 in 10.0 mi SE 3.5 mph - N/A   Mostly Cloudy
8:56 PM 66.2 °F 59.0 °F 78% 29.84 in 10.0 mi Calm Calm - N/A   Mostly Cloudy
9:11 PM 68.0 °F 59.0 °F 73% 29.84 in 10.0 mi Calm Calm - N/A   Mostly Cloudy
9:16 PM 68.0 °F 59.0 °F 73% 29.84 in 10.0 mi Calm Calm - N/A   Mostly Cloudy
9:31 PM 69.8 °F 59.0 °F 68% 29.83 in 10.0 mi South 3.5 mph - N/A   Mostly Cloudy
9:36 PM 69.8 °F 59.0 °F 68% 29.83 in 10.0 mi Calm Calm - N/A   Mostly Cloudy
9:51 PM 69.8 °F 60.8 °F 73% 29.83 in 10.0 mi SSE 5.8 mph - N/A   Mostly Cloudy
9:56 PM 69.8 °F 60.8 °F 73% 29.83 in 10.0 mi SSE 5.8 mph - N/A   Mostly Cloudy
10:11 PM 69.8 °F 60.8 °F 73% 29.83 in 10.0 mi SSE 5.8 mph - N/A   Overcast
10:16 PM 69.8 °F 60.8 °F 73% 29.83 in 10.0 mi South 8.1 mph - N/A   Overcast
10:31 PM 69.8 °F 60.8 °F 73% 29.83 in 10.0 mi South 4.6 mph - N/A   Overcast
10:35 PM 69.8 °F 60.8 °F 73% 29.83 in 10.0 mi South 4.6 mph - N/A   Overcast
10:51 PM 69.8 °F 60.8 °F 73% 29.82 in 10.0 mi South 3.5 mph - N/A   Mostly Cloudy
11:35 PM 68.0 °F 60.8 °F 78% 29.82 in 10.0 mi South 3.5 mph - N/A   Scattered Clouds
11:52 PM 68.0 °F 60.8 °F 78% 29.83 in 10.0 mi Calm Calm - N/A   Mostly Cloudy
11:55 PM 68.0 °F 60.8 °F 78% 29.83 in 10.0 mi Calm Calm - N/A   Scattered Clouds